Terug naar catalogus

SL-12 DEB

LostHEO
NORAD 52982·DEBRIS·🇷🇺 Russia

Gelanceerd Dec 25, 2007 vanaf Baikonur Cosmodrome

Loading…

Volgende Passages (komende 24 uur)

TLE

VerouderdSource: Space-Track

Epoch: Feb 6, 2023, 19:05 UTC

1 52982U 07065N   23037.79569372  .00042275  00000-0  10382+0 0  9990
2 52982  64.6490 195.5470 5164366 325.8104   9.6839  5.07046016 13303

Volg SL-12 DEB in realtime met AllMySat

Download on the App Store